{"data":{"norad_id":47273,"epoch":"2026-09-19T22:10:22.844928Z","epoch_age_seconds":64035,"freshness":"FRESH","line1":"1 47273U 20100R   26262.92387552 -.00000368  00000+0 -10569-2 0  9996","line2":"2 47273  87.8980 331.8551 0001760  98.4246 261.7082 13.12443999277151","mean_motion":13.12443999,"eccentricity":0.000176,"inclination_deg":87.898,"raan_deg":331.8551,"arg_perigee_deg":98.4246,"mean_anomaly_deg":261.7082,"bstar":-0.0010569,"rev_number":27715,"period_min":109.71896714048,"perigee_km":1212.3832718229,"apogee_km":1215.0556052893,"semimajor_km":7591.8564385561,"source":"CELESTRAK","updated_at":"2026-09-20T09:00:44.579019Z"}}